DB0TGO-13 Weather Reports


Display with metric or nautical units.
time (UTC)temp
F
wind
direction
speed
MPH
gust
MPH
rain 1hr
in
rain 24hr
in
rain mn
in
humidity
%
barometer
mb
20260508113002 52 40 5.0 0.0 0.00 0.00 0.00 65 1015.2
20260508111502 52 40 5.0 0.0 0.00 0.00 0.00 67 1015.2
20260508110002 52 80 5.0 0.0 0.00 0.00 0.00 67 1015.2
20260508104502 51 80 6.0 0.0 0.00 0.00 0.00 69 1015.2
20260508103002 51 80 6.0 0.0 0.00 0.00 0.00 69 1015.2
20260508101502 51 80 6.0 0.0 0.00 0.00 0.00 66 1015.2
20260508100002 51 90 5.0 0.0 0.00 0.00 0.00 66 1015.2
20260508094502 51 90 5.0 0.0 0.00 0.00 0.00 64 1015.0
20260508093002 51 80 5.0 0.0 0.00 0.00 0.00 64 1015.0
20260508091502 51 80 5.0 0.0 0.00 0.00 0.00 72 1015.0
20260508090002 51 60 6.0 0.0 0.00 0.00 0.00 72 1015.0
20260508084503 50 60 5.0 0.0 0.00 0.00 0.00 70 1014.8
20260508083002 50 60 5.0 0.0 0.00 0.00 0.00 70 1014.8
20260508081502 49 60 7.0 0.0 0.00 0.00 0.00 73 1014.6
20260508080002 49 60 7.0 0.0 0.00 0.00 0.00 73 1014.6
20260508074502 49 60 7.0 0.0 0.00 0.00 0.00 77 1014.5
20260508073002 49 40 4.0 0.0 0.00 0.00 0.00 77 1014.5
20260508071502 48 40 4.0 0.0 0.00 0.00 0.00 78 1014.3
20260508070002 48 40 6.0 0.0 0.00 0.00 0.00 78 1014.3
20260508064503 46 40 6.0 0.0 0.00 0.00 0.00 81 1014.2
20260508063002 46 30 5.0 0.0 0.00 0.00 0.00 81 1014.2
20260508061502 46 30 5.0 0.0 0.00 0.00 0.00 80 1014.0
20260508060002 46 40 5.0 0.0 0.00 0.00 0.00 80 1014.0
20260508054502 45 40 4.0 0.0 0.00 0.00 0.00 84 1013.8
20260508053002 45 40 4.0 0.0 0.00 0.00 0.00 84 1013.8
20260508051502 45 40 5.0 0.0 0.00 0.00 0.00 83 1013.8
20260508050002 45 40 5.0 0.0 0.00 0.00 0.00 83 1013.8
20260508044502 43 40 5.0 0.0 0.00 0.00 0.00 85 1013.6
20260508043002 43 40 4.0 0.0 0.00 0.00 0.00 85 1013.6
20260508041502 44 40 6.0 0.0 0.00 0.00 0.00 84 1013.5
20260508040003 44 40 6.0 0.0 0.00 0.00 0.00 84 1013.5
20260508034502 45 40 4.0 0.0 0.00 0.00 0.00 85 1013.4
20260508033002 45 40 4.0 0.0 0.00 0.00 0.00 85 1013.4
20260508031502 45 30 4.0 0.0 0.00 0.00 0.00 86 1013.3
20260508030004 45 30 4.0 0.0 0.00 0.00 0.00 86 1013.3
20260507204502 48 250 1.0 0.0 0.00 0.00 0.00 88 1012.1
20260507203002 48 240 2.0 0.0 0.00 0.00 0.00 88 1012.1
20260507201502 48 240 2.0 0.0 0.00 0.00 0.00 88 1011.9
20260507200002 48 250 3.0 0.0 0.00 0.00 0.00 88 1011.9
20260507194502 48 250 3.0 0.0 0.00 0.00 0.00 88 1011.6
20260507193002 48 220 2.0 0.0 0.00 0.00 0.00 88 1011.6
20260507191502 48 210 3.0 0.0 0.00 0.00 0.00 86 1011.4
20260507190003 48 210 3.0 0.0 0.00 0.00 0.00 86 1011.4
20260507184502 48 210 3.0 0.0 0.00 0.00 0.00 84 1011.2
20260507183002 48 190 3.0 0.0 0.00 0.00 0.00 84 1011.2
20260507181502 49 180 3.0 0.0 0.00 0.00 0.00 81 1010.9
20260507180002 49 180 3.0 0.0 0.00 0.00 0.00 81 1010.9
20260507174502 49 100 3.0 0.0 0.00 0.00 0.00 77 1010.7
20260507173002 49 100 3.0 0.0 0.00 0.00 0.00 77 1010.7
20260507171502 50 120 3.0 0.0 0.00 0.00 0.00 74 1010.6
20260507170002 50 120 3.0 0.0 0.00 0.00 0.00 74 1010.6
20260507164502 50 130 4.0 0.0 0.00 0.00 0.00 73 1010.6
20260507163002 50 130 4.0 0.0 0.00 0.00 0.00 73 1010.6
20260507161502 50 130 4.0 0.0 0.00 0.00 0.00 72 1010.4
20260507160002 50 110 3.0 0.0 0.00 0.00 0.00 72 1010.4
20260507154503 50 110 3.0 0.0 0.00 0.00 0.00 74 1010.2
20260507153002 50 90 3.0 0.0 0.00 0.00 0.00 74 1010.2
20260507151502 50 70 3.0 0.0 0.00 0.00 0.00 72 1010.0
20260507150002 50 70 3.0 0.0 0.00 0.00 0.00 72 1010.0
20260507144502 49 70 3.0 0.0 0.00 0.00 0.00 73 1009.9
20260507143002 49 50 7.0 0.0 0.00 0.00 0.00 73 1009.9
20260507141502 49 50 7.0 0.0 0.00 0.00 0.00 74 1009.8
20260507140002 49 60 6.0 0.0 0.00 0.00 0.00 74 1009.8
20260507134502 48 70 9.0 0.0 0.00 0.00 0.00 74 1009.7
20260507133002 48 70 9.0 0.0 0.00 0.00 0.00 74 1009.7
20260507131502 48 70 9.0 0.0 0.00 0.00 0.00 76 1009.5
20260507130003 48 60 8.0 0.0 0.00 0.00 0.00 76 1009.5
20260507124502 47 60 8.0 0.0 0.00 0.00 0.00 77 1009.5
20260507123002 47 50 10.0 0.0 0.00 0.00 0.00 77 1009.5
20260507121502 47 40 9.0 0.0 0.00 0.00 0.00 77 1009.2
20260507120002 47 40 9.0 0.0 0.00 0.00 0.00 77 1009.2
20260507114502 47 60 9.0 0.0 0.00 0.00 0.00 77 1009.1